Year,Month,Day,Hour,Minute,Value (Times are PST for temperature in C)
2008,08,03,00,00,13.40
2008,08,03,00,01,13.40
2008,08,03,00,02,13.30
2008,08,03,00,03,13.30
2008,08,03,00,04,13.30
2008,08,03,00,05,13.30
2008,08,03,00,06,13.30
2008,08,03,00,07,13.30
2008,08,03,00,08,13.30
2008,08,03,00,09,13.20
2008,08,03,00,10,13.20
2008,08,03,00,11,13.20
2008,08,03,00,12,13.20
2008,08,03,00,13,13.20
2008,08,03,00,14,13.20
2008,08,03,00,15,13.20
2008,08,03,00,16,13.20
2008,08,03,00,17,13.20
2008,08,03,00,18,13.20
2008,08,03,00,19,13.10
2008,08,03,00,20,13.10
2008,08,03,00,21,13.10
2008,08,03,00,22,13.10
2008,08,03,00,23,13.10
2008,08,03,00,24,13.10
2008,08,03,00,25,13.10
2008,08,03,00,26,13.10
2008,08,03,00,27,13.00
2008,08,03,00,28,13.00
2008,08,03,00,29,13.00
2008,08,03,00,30,13.00
2008,08,03,00,31,13.00
2008,08,03,00,32,13.00
2008,08,03,00,33,12.90
2008,08,03,00,34,12.90
2008,08,03,00,35,12.90
2008,08,03,00,36,12.90
2008,08,03,00,37,12.90
2008,08,03,00,38,12.90
2008,08,03,00,39,12.90
2008,08,03,00,40,12.90
2008,08,03,00,41,12.90
2008,08,03,00,42,12.80
2008,08,03,00,43,12.80
2008,08,03,00,44,12.80
2008,08,03,00,45,12.80
2008,08,03,00,46,12.80
2008,08,03,00,47,12.80
2008,08,03,00,48,12.80
2008,08,03,00,49,12.80
2008,08,03,00,50,12.70
2008,08,03,00,51,12.70
2008,08,03,00,52,12.70
2008,08,03,00,53,12.70
2008,08,03,00,54,12.70
2008,08,03,00,55,12.70
2008,08,03,00,56,12.70
2008,08,03,00,57,12.70
2008,08,03,00,58,12.70
2008,08,03,00,59,12.70
2008,08,03,01,00,12.60
2008,08,03,01,01,12.60
2008,08,03,01,02,12.60
2008,08,03,01,03,12.60
2008,08,03,01,04,12.60
2008,08,03,01,05,12.50
2008,08,03,01,06,12.50
2008,08,03,01,07,12.50
2008,08,03,01,08,12.50
2008,08,03,01,09,12.50
2008,08,03,01,10,12.40
2008,08,03,01,11,12.40
2008,08,03,01,12,12.40
2008,08,03,01,13,12.40
2008,08,03,01,14,12.40
2008,08,03,01,15,12.40
2008,08,03,01,16,12.40
2008,08,03,01,17,12.30
2008,08,03,01,18,12.30
2008,08,03,01,19,12.30
2008,08,03,01,20,12.30
2008,08,03,01,21,12.30
2008,08,03,01,22,12.30
2008,08,03,01,23,12.30
2008,08,03,01,24,12.30
2008,08,03,01,25,12.30
2008,08,03,01,26,12.30
2008,08,03,01,27,12.20
2008,08,03,01,28,12.20
2008,08,03,01,29,12.20
2008,08,03,01,30,12.20
2008,08,03,01,31,12.20
2008,08,03,01,32,12.20
2008,08,03,01,33,12.20
2008,08,03,01,34,12.20
2008,08,03,01,35,12.20
2008,08,03,01,36,12.10
2008,08,03,01,37,12.10
2008,08,03,01,38,12.10
2008,08,03,01,39,12.10
2008,08,03,01,40,12.10
2008,08,03,01,41,12.10
2008,08,03,01,42,12.10
2008,08,03,01,43,12.10
2008,08,03,01,44,12.10
2008,08,03,01,45,12.10
2008,08,03,01,46,12.10
2008,08,03,01,47,12.10
2008,08,03,01,48,12.10
2008,08,03,01,49,12.10
2008,08,03,01,50,12.10
2008,08,03,01,51,12.00
2008,08,03,01,52,12.00
2008,08,03,01,53,12.00
2008,08,03,01,54,12.00
2008,08,03,01,55,11.90
2008,08,03,01,56,11.90
2008,08,03,01,57,11.90
2008,08,03,01,58,11.90
2008,08,03,01,59,11.90
2008,08,03,02,00,11.90
2008,08,03,02,01,11.90
2008,08,03,02,02,11.90
2008,08,03,02,03,11.90
2008,08,03,02,04,11.90
2008,08,03,02,05,11.80
2008,08,03,02,06,11.80
2008,08,03,02,07,11.80
2008,08,03,02,08,11.80
2008,08,03,02,09,11.80
2008,08,03,02,10,11.80
2008,08,03,02,11,11.80
2008,08,03,02,12,11.80
2008,08,03,02,13,11.70
2008,08,03,02,14,11.70
2008,08,03,02,15,11.80
2008,08,03,02,16,11.70
2008,08,03,02,17,11.70
2008,08,03,02,18,11.70
2008,08,03,02,19,11.70
2008,08,03,02,20,11.70
2008,08,03,02,21,11.70
2008,08,03,02,22,11.70
2008,08,03,02,23,11.70
2008,08,03,02,24,11.60
2008,08,03,02,25,11.60
2008,08,03,02,26,11.60
2008,08,03,02,27,11.60
2008,08,03,02,28,11.60
2008,08,03,02,29,11.60
2008,08,03,02,30,11.60
2008,08,03,02,31,11.60
2008,08,03,02,32,11.60
2008,08,03,02,33,11.50
2008,08,03,02,34,11.50
2008,08,03,02,35,11.50
2008,08,03,02,36,11.40
2008,08,03,02,37,11.40
2008,08,03,02,38,11.40
2008,08,03,02,39,11.40
2008,08,03,02,40,11.40
2008,08,03,02,41,11.40
2008,08,03,02,42,11.40
2008,08,03,02,43,11.40
2008,08,03,02,44,11.40
2008,08,03,02,45,11.40
2008,08,03,02,46,11.40
2008,08,03,02,47,11.40
2008,08,03,02,48,11.40
2008,08,03,02,49,11.50
2008,08,03,02,50,11.40
2008,08,03,02,51,11.50
2008,08,03,02,52,11.50
2008,08,03,02,53,11.50
2008,08,03,02,54,11.50
2008,08,03,02,55,11.50
2008,08,03,02,56,11.50
2008,08,03,02,57,11.50
2008,08,03,02,58,11.50
2008,08,03,02,59,11.50
2008,08,03,03,00,11.40
2008,08,03,03,01,11.40
2008,08,03,03,02,11.40
2008,08,03,03,03,11.40
2008,08,03,03,04,11.40
2008,08,03,03,05,11.40
2008,08,03,03,06,11.30
2008,08,03,03,07,11.30
2008,08,03,03,08,11.30
2008,08,03,03,09,11.30
2008,08,03,03,10,11.30
2008,08,03,03,11,11.30
2008,08,03,03,12,11.30
2008,08,03,03,13,11.30
2008,08,03,03,14,11.20
2008,08,03,03,15,11.20
2008,08,03,03,16,11.20
2008,08,03,03,17,11.20
2008,08,03,03,18,11.10
2008,08,03,03,19,11.10
2008,08,03,03,20,11.10
2008,08,03,03,21,11.10
2008,08,03,03,22,11.10
2008,08,03,03,23,11.00
2008,08,03,03,24,11.00
2008,08,03,03,25,10.90
2008,08,03,03,26,10.90
2008,08,03,03,27,10.90
2008,08,03,03,28,10.80
2008,08,03,03,29,10.80
2008,08,03,03,30,10.80
2008,08,03,03,31,10.80
2008,08,03,03,32,10.80
2008,08,03,03,33,10.80
2008,08,03,03,34,10.80
2008,08,03,03,35,10.80
2008,08,03,03,36,10.70
2008,08,03,03,37,10.70
2008,08,03,03,38,10.70
2008,08,03,03,39,10.70
2008,08,03,03,40,10.70
2008,08,03,03,41,10.70
2008,08,03,03,42,10.70
2008,08,03,03,43,10.70
2008,08,03,03,44,10.70
2008,08,03,03,45,10.70
2008,08,03,03,46,10.70
2008,08,03,03,47,10.70
2008,08,03,03,48,10.70
2008,08,03,03,49,10.70
2008,08,03,03,50,10.80
2008,08,03,03,51,10.70
2008,08,03,03,52,10.70
2008,08,03,03,53,10.80
2008,08,03,03,54,10.80
2008,08,03,03,55,10.80
2008,08,03,03,56,10.80
2008,08,03,03,57,10.70
2008,08,03,03,58,10.70
2008,08,03,03,59,10.70
2008,08,03,04,00,10.70
2008,08,03,04,01,10.70
2008,08,03,04,02,10.70
2008,08,03,04,03,10.70
2008,08,03,04,04,10.70
2008,08,03,04,05,10.70
2008,08,03,04,06,10.70
2008,08,03,04,07,10.70
2008,08,03,04,08,10.70
2008,08,03,04,09,10.70
2008,08,03,04,10,10.70
2008,08,03,04,11,10.70
2008,08,03,04,12,10.70
2008,08,03,04,13,10.70
2008,08,03,04,14,10.70
2008,08,03,04,15,10.70
2008,08,03,04,16,10.70
2008,08,03,04,17,10.60
2008,08,03,04,18,10.60
2008,08,03,04,19,10.60
2008,08,03,04,20,10.60
2008,08,03,04,21,10.60
2008,08,03,04,22,10.50
2008,08,03,04,23,10.50
2008,08,03,04,24,10.50
2008,08,03,04,25,10.60
2008,08,03,04,26,10.60
2008,08,03,04,27,10.60
2008,08,03,04,28,10.60
2008,08,03,04,29,10.60
2008,08,03,04,30,10.60
2008,08,03,04,31,10.60
2008,08,03,04,32,10.60
2008,08,03,04,33,10.60
2008,08,03,04,34,10.60
2008,08,03,04,35,10.60
2008,08,03,04,36,10.60
2008,08,03,04,37,10.60
2008,08,03,04,38,10.60
2008,08,03,04,39,10.60
2008,08,03,04,40,10.60
2008,08,03,04,41,10.60
2008,08,03,04,42,10.60
2008,08,03,04,43,10.60
2008,08,03,04,44,10.60
2008,08,03,04,45,10.60
2008,08,03,04,46,10.60
2008,08,03,04,47,10.60
2008,08,03,04,48,10.60
2008,08,03,04,49,10.60
2008,08,03,04,50,10.60
2008,08,03,04,51,10.60
2008,08,03,04,52,10.60
2008,08,03,04,53,10.60
2008,08,03,04,54,10.60
2008,08,03,04,55,10.60
2008,08,03,04,56,10.60
2008,08,03,04,57,10.60
2008,08,03,04,58,10.60
2008,08,03,04,59,10.60
2008,08,03,05,00,10.50
2008,08,03,05,01,10.50
2008,08,03,05,02,10.50
2008,08,03,05,03,10.40
2008,08,03,05,04,10.40
2008,08,03,05,05,10.40
2008,08,03,05,06,10.40
2008,08,03,05,07,10.40
2008,08,03,05,08,10.30
2008,08,03,05,09,10.30
2008,08,03,05,10,10.30
2008,08,03,05,11,10.30
2008,08,03,05,12,10.30
2008,08,03,05,13,10.30
2008,08,03,05,14,10.20
2008,08,03,05,15,10.20
2008,08,03,05,16,10.20
2008,08,03,05,17,10.20
2008,08,03,05,18,10.20
2008,08,03,05,19,10.20
2008,08,03,05,20,10.20
2008,08,03,05,21,10.10
2008,08,03,05,22,10.10
2008,08,03,05,23,10.10
2008,08,03,05,24,10.10
2008,08,03,05,25,10.10
2008,08,03,05,26,10.10
2008,08,03,05,27,10.10
2008,08,03,05,28,10.10
2008,08,03,05,29,10.10
2008,08,03,05,30,10.00
2008,08,03,05,31,10.00
2008,08,03,05,32,10.00
2008,08,03,05,33,10.00
2008,08,03,05,34,9.90
2008,08,03,05,35,9.90
2008,08,03,05,36,9.90
2008,08,03,05,37,10.00
2008,08,03,05,38,9.90
2008,08,03,05,39,9.90
2008,08,03,05,40,9.90
2008,08,03,05,41,9.90
2008,08,03,05,42,9.90
2008,08,03,05,43,9.90
2008,08,03,05,44,9.90
2008,08,03,05,45,9.90
2008,08,03,05,46,10.00
2008,08,03,05,47,10.00
2008,08,03,05,48,10.00
2008,08,03,05,49,9.90
2008,08,03,05,50,9.90
2008,08,03,05,51,9.90
2008,08,03,05,52,9.90
2008,08,03,05,53,9.90
2008,08,03,05,54,9.90
2008,08,03,05,55,9.90
2008,08,03,05,56,9.90
2008,08,03,05,57,9.90
2008,08,03,05,58,9.90
2008,08,03,05,59,9.90
2008,08,03,06,00,9.90
2008,08,03,06,01,9.90
2008,08,03,06,02,9.90
2008,08,03,06,03,9.90
2008,08,03,06,04,9.80
2008,08,03,06,05,9.80
2008,08,03,06,06,9.80
2008,08,03,06,07,9.80
2008,08,03,06,08,9.80
2008,08,03,06,09,9.80
2008,08,03,06,10,9.80
2008,08,03,06,11,9.80
2008,08,03,06,12,9.80
2008,08,03,06,13,9.80
2008,08,03,06,14,9.80
2008,08,03,06,15,9.90
2008,08,03,06,16,9.90
2008,08,03,06,17,9.90
2008,08,03,06,18,9.90
2008,08,03,06,19,9.90
2008,08,03,06,20,9.90
2008,08,03,06,21,9.90
2008,08,03,06,22,9.80
2008,08,03,06,23,9.80
2008,08,03,06,24,9.80
2008,08,03,06,25,9.80
2008,08,03,06,26,9.80
2008,08,03,06,27,9.80
2008,08,03,06,28,9.80
2008,08,03,06,29,9.80
2008,08,03,06,30,9.90
2008,08,03,06,31,9.80
2008,08,03,06,32,9.90
2008,08,03,06,33,9.90
2008,08,03,06,34,9.90
2008,08,03,06,35,9.90
2008,08,03,06,36,9.90
2008,08,03,06,37,9.90
2008,08,03,06,38,9.90
2008,08,03,06,39,9.90
2008,08,03,06,40,9.90
2008,08,03,06,41,9.90
2008,08,03,06,42,9.90
2008,08,03,06,43,9.90
2008,08,03,06,44,9.90
2008,08,03,06,45,9.90
2008,08,03,06,46,9.90
2008,08,03,06,47,9.90
2008,08,03,06,48,9.90
2008,08,03,06,49,9.90
2008,08,03,06,50,9.90
2008,08,03,06,51,9.90
2008,08,03,06,52,9.90
2008,08,03,06,53,9.90
2008,08,03,06,54,9.90
2008,08,03,06,55,9.90
2008,08,03,06,56,9.90
2008,08,03,06,57,9.90
2008,08,03,06,58,9.90
2008,08,03,06,59,9.90
2008,08,03,07,00,10.00
2008,08,03,07,01,10.00
2008,08,03,07,02,10.00
2008,08,03,07,03,10.00
2008,08,03,07,04,10.00
2008,08,03,07,05,10.00
2008,08,03,07,06,10.00
2008,08,03,07,07,10.10
2008,08,03,07,08,10.10
2008,08,03,07,09,10.10
2008,08,03,07,10,10.10
2008,08,03,07,11,10.10
2008,08,03,07,12,10.10
2008,08,03,07,13,10.10
2008,08,03,07,14,10.10
2008,08,03,07,15,10.10
2008,08,03,07,16,10.20
2008,08,03,07,17,10.20
2008,08,03,07,18,10.20
2008,08,03,07,19,10.20
2008,08,03,07,20,10.30
2008,08,03,07,21,10.30
2008,08,03,07,22,10.30
2008,08,03,07,23,10.30
2008,08,03,07,24,10.30
2008,08,03,07,25,10.30
2008,08,03,07,26,10.30
2008,08,03,07,27,10.40
2008,08,03,07,28,10.40
2008,08,03,07,29,10.40
2008,08,03,07,30,10.40
2008,08,03,07,31,10.50
2008,08,03,07,32,10.50
2008,08,03,07,33,10.50
2008,08,03,07,34,10.60
2008,08,03,07,35,10.60
2008,08,03,07,36,10.60
2008,08,03,07,37,10.60
2008,08,03,07,38,10.60
2008,08,03,07,39,10.60
2008,08,03,07,40,10.70
2008,08,03,07,41,10.70
2008,08,03,07,42,10.70
2008,08,03,07,43,10.70
2008,08,03,07,44,10.80
2008,08,03,07,45,10.80
2008,08,03,07,46,10.80
2008,08,03,07,47,10.80
2008,08,03,07,48,10.80
2008,08,03,07,49,10.90
2008,08,03,07,50,10.90
2008,08,03,07,51,10.90
2008,08,03,07,52,11.00
2008,08,03,07,53,11.00
2008,08,03,07,54,11.10
2008,08,03,07,55,11.10
2008,08,03,07,56,11.10
2008,08,03,07,57,11.20
2008,08,03,07,58,11.20
2008,08,03,07,59,11.20
2008,08,03,08,00,11.20
2008,08,03,08,01,11.30
2008,08,03,08,02,11.30
2008,08,03,08,03,11.30
2008,08,03,08,04,11.30
2008,08,03,08,05,11.40
2008,08,03,08,06,11.40
2008,08,03,08,07,11.50
2008,08,03,08,08,11.50
2008,08,03,08,09,11.60
2008,08,03,08,10,11.60
2008,08,03,08,11,11.70
2008,08,03,08,12,11.70
2008,08,03,08,13,11.70
2008,08,03,08,14,11.80
2008,08,03,08,15,11.80
2008,08,03,08,16,11.90
2008,08,03,08,17,11.90
2008,08,03,08,18,11.90
2008,08,03,08,19,12.00
2008,08,03,08,20,12.10
2008,08,03,08,21,12.10
2008,08,03,08,22,12.20
2008,08,03,08,23,12.20
2008,08,03,08,24,12.30
2008,08,03,08,25,12.30
2008,08,03,08,26,12.30
2008,08,03,08,27,12.40
2008,08,03,08,28,12.40
2008,08,03,08,29,12.50
2008,08,03,08,30,12.60
2008,08,03,08,31,12.70
2008,08,03,08,32,12.80
2008,08,03,08,33,12.90
2008,08,03,08,34,13.00
2008,08,03,08,35,13.00
2008,08,03,08,36,13.10
2008,08,03,08,37,13.20
2008,08,03,08,38,13.30
2008,08,03,08,39,13.40
2008,08,03,08,40,13.50
2008,08,03,08,41,13.50
2008,08,03,08,42,13.60
2008,08,03,08,43,13.70
2008,08,03,08,44,13.70
2008,08,03,08,45,13.80
2008,08,03,08,46,13.90
2008,08,03,08,47,13.90
2008,08,03,08,48,14.00
2008,08,03,08,49,14.10
2008,08,03,08,50,14.10
2008,08,03,08,51,14.20
2008,08,03,08,52,14.30
2008,08,03,08,53,14.30
2008,08,03,08,54,14.40
2008,08,03,08,55,14.40
2008,08,03,08,56,14.40
2008,08,03,08,57,14.40
2008,08,03,08,58,14.50
2008,08,03,08,59,14.60
2008,08,03,09,00,14.60
2008,08,03,09,01,14.60
2008,08,03,09,02,14.70
2008,08,03,09,03,14.70
2008,08,03,09,04,14.80
2008,08,03,09,05,14.80
2008,08,03,09,06,14.80
2008,08,03,09,07,14.90
2008,08,03,09,08,15.00
2008,08,03,09,09,15.00
2008,08,03,09,10,15.00
2008,08,03,09,11,15.10
2008,08,03,09,12,15.30
2008,08,03,09,13,15.30
2008,08,03,09,14,15.40
2008,08,03,09,15,15.40
2008,08,03,09,16,15.50
2008,08,03,09,17,15.50
2008,08,03,09,18,15.50
2008,08,03,09,19,15.60
2008,08,03,09,20,15.60
2008,08,03,09,21,15.60
2008,08,03,09,22,15.60
2008,08,03,09,23,15.60
2008,08,03,09,24,15.60
2008,08,03,09,25,15.60
2008,08,03,09,26,15.70
2008,08,03,09,27,15.70
2008,08,03,09,28,15.80
2008,08,03,09,29,15.80
2008,08,03,09,30,15.80
2008,08,03,09,31,15.90
2008,08,03,09,32,16.00
2008,08,03,09,33,16.10
2008,08,03,09,34,16.10
2008,08,03,09,35,16.20
2008,08,03,09,36,16.20
2008,08,03,09,37,16.20
2008,08,03,09,38,16.20
2008,08,03,09,39,16.20
2008,08,03,09,40,16.20
2008,08,03,09,41,16.20
2008,08,03,09,42,16.20
2008,08,03,09,43,16.20
2008,08,03,09,44,16.20
2008,08,03,09,45,16.20
2008,08,03,09,46,16.30
2008,08,03,09,47,16.30
2008,08,03,09,48,16.30
2008,08,03,09,49,16.40
2008,08,03,09,50,16.50
2008,08,03,09,51,16.60
2008,08,03,09,52,16.60
2008,08,03,09,53,16.70
2008,08,03,09,54,16.70
2008,08,03,09,55,16.70
2008,08,03,09,56,16.70
2008,08,03,09,57,16.80
2008,08,03,09,58,16.80
2008,08,03,09,59,16.80
2008,08,03,10,00,16.90
2008,08,03,10,01,16.90
2008,08,03,10,02,16.90
2008,08,03,10,03,16.90
2008,08,03,10,04,16.90
2008,08,03,10,05,16.90
2008,08,03,10,06,16.90
2008,08,03,10,07,16.90
2008,08,03,10,08,16.90
2008,08,03,10,09,16.90
2008,08,03,10,10,16.90
2008,08,03,10,11,16.90
2008,08,03,10,12,16.90
2008,08,03,10,13,16.90
2008,08,03,10,14,16.90
2008,08,03,10,15,16.90
2008,08,03,10,16,16.90
2008,08,03,10,17,16.90
2008,08,03,10,18,16.80
2008,08,03,10,19,16.90
2008,08,03,10,20,16.90
2008,08,03,10,21,17.00
2008,08,03,10,22,17.10
2008,08,03,10,23,17.10
2008,08,03,10,24,17.20
2008,08,03,10,25,17.20
2008,08,03,10,26,17.20
2008,08,03,10,27,17.30
2008,08,03,10,28,17.40
2008,08,03,10,29,17.40
2008,08,03,10,30,17.50
2008,08,03,10,31,17.60
2008,08,03,10,32,17.60
2008,08,03,10,33,17.60
2008,08,03,10,34,17.70
2008,08,03,10,35,17.70
2008,08,03,10,36,17.80
2008,08,03,10,37,17.90
2008,08,03,10,38,18.00
2008,08,03,10,39,18.00
2008,08,03,10,40,18.00
2008,08,03,10,41,17.90
2008,08,03,10,42,18.00
2008,08,03,10,43,18.00
2008,08,03,10,44,18.10
2008,08,03,10,45,18.10
2008,08,03,10,46,18.10
2008,08,03,10,47,18.20
2008,08,03,10,48,18.20
2008,08,03,10,49,18.20
2008,08,03,10,50,18.20
2008,08,03,10,51,18.30
2008,08,03,10,52,18.40
2008,08,03,10,53,18.50
2008,08,03,10,54,18.60
2008,08,03,10,55,18.70
2008,08,03,10,56,18.90
2008,08,03,10,57,19.00
2008,08,03,10,58,19.10
2008,08,03,10,59,19.10
2008,08,03,11,00,19.20
2008,08,03,11,01,19.30
2008,08,03,11,02,19.40
2008,08,03,11,03,19.40
2008,08,03,11,04,19.40
2008,08,03,11,05,19.50
2008,08,03,11,06,19.50
2008,08,03,11,07,19.60
2008,08,03,11,08,19.60
2008,08,03,11,09,19.60
2008,08,03,11,10,19.70
2008,08,03,11,11,19.80
2008,08,03,11,12,19.90
2008,08,03,11,13,19.90
2008,08,03,11,14,20.00
2008,08,03,11,15,20.00
2008,08,03,11,16,20.10
2008,08,03,11,17,20.20
2008,08,03,11,18,20.20
2008,08,03,11,19,20.30
2008,08,03,11,20,20.30
2008,08,03,11,21,20.40
2008,08,03,11,22,20.40
2008,08,03,11,23,20.40
2008,08,03,11,24,20.50
2008,08,03,11,25,20.50
2008,08,03,11,26,20.50
2008,08,03,11,27,20.60
2008,08,03,11,28,20.60
2008,08,03,11,29,20.60
2008,08,03,11,30,20.60
2008,08,03,11,31,20.60
2008,08,03,11,32,20.60
2008,08,03,11,33,20.60
2008,08,03,11,34,20.70
2008,08,03,11,35,20.70
2008,08,03,11,36,20.70
2008,08,03,11,37,20.70
2008,08,03,11,38,20.70
2008,08,03,11,39,20.80
2008,08,03,11,40,20.80
2008,08,03,11,41,20.90
2008,08,03,11,42,20.90
2008,08,03,11,43,20.90
2008,08,03,11,44,20.90
2008,08,03,11,45,20.80
2008,08,03,11,46,20.70
2008,08,03,11,47,20.70
2008,08,03,11,48,20.60
2008,08,03,11,49,20.60
2008,08,03,11,50,20.70
2008,08,03,11,51,20.70
2008,08,03,11,52,20.70
2008,08,03,11,53,20.80
2008,08,03,11,54,20.80
2008,08,03,11,55,20.80
2008,08,03,11,56,20.90
2008,08,03,11,57,20.80
2008,08,03,11,58,20.60
2008,08,03,11,59,20.40
2008,08,03,12,00,20.30
2008,08,03,12,01,20.40
2008,08,03,12,02,20.40
2008,08,03,12,03,20.40
2008,08,03,12,04,20.40
2008,08,03,12,05,20.40
2008,08,03,12,06,20.40
2008,08,03,12,07,20.50
2008,08,03,12,08,20.60
2008,08,03,12,09,20.60
2008,08,03,12,10,20.70
2008,08,03,12,11,20.70
2008,08,03,12,12,20.80
2008,08,03,12,13,20.80
2008,08,03,12,14,20.80
2008,08,03,12,15,20.90
2008,08,03,12,16,20.90
2008,08,03,12,17,21.00
2008,08,03,12,18,21.10
2008,08,03,12,19,21.10
2008,08,03,12,20,21.20
2008,08,03,12,21,21.20
2008,08,03,12,22,21.30
2008,08,03,12,23,21.30
2008,08,03,12,24,21.30
2008,08,03,12,25,21.40
2008,08,03,12,26,21.40
2008,08,03,12,27,21.50
2008,08,03,12,28,21.40
2008,08,03,12,29,21.50
2008,08,03,12,30,21.50
2008,08,03,12,31,21.60
2008,08,03,12,32,21.60
2008,08,03,12,33,21.70
2008,08,03,12,34,21.80
2008,08,03,12,35,21.80
2008,08,03,12,36,21.70
2008,08,03,12,37,21.70
2008,08,03,12,38,21.70
2008,08,03,12,39,21.70
2008,08,03,12,40,21.80
2008,08,03,12,41,21.80
2008,08,03,12,42,21.80
2008,08,03,12,43,21.80
2008,08,03,12,44,21.90
2008,08,03,12,45,22.00
2008,08,03,12,46,22.00
2008,08,03,12,47,22.10
2008,08,03,12,48,22.20
2008,08,03,12,49,22.20
2008,08,03,12,50,22.30
2008,08,03,12,51,22.30
2008,08,03,12,52,22.30
2008,08,03,12,53,22.30
2008,08,03,12,54,22.40
2008,08,03,12,55,22.50
2008,08,03,12,56,22.60
2008,08,03,12,57,22.60
2008,08,03,12,58,22.70
2008,08,03,12,59,22.70
2008,08,03,13,00,22.70
2008,08,03,13,01,22.70
2008,08,03,13,02,22.70
2008,08,03,13,03,22.70
2008,08,03,13,04,22.70
2008,08,03,13,05,22.70
2008,08,03,13,06,22.70
2008,08,03,13,07,22.80
2008,08,03,13,08,22.80
2008,08,03,13,09,22.90
2008,08,03,13,10,22.90
2008,08,03,13,11,22.90
2008,08,03,13,12,23.00
2008,08,03,13,13,23.00
2008,08,03,13,14,22.90
2008,08,03,13,15,22.80
2008,08,03,13,16,22.80
2008,08,03,13,17,22.70
2008,08,03,13,18,22.70
2008,08,03,13,19,22.60
2008,08,03,13,20,22.50
2008,08,03,13,21,22.60
2008,08,03,13,22,22.60
2008,08,03,13,23,22.60
2008,08,03,13,24,22.70
2008,08,03,13,25,22.70
2008,08,03,13,26,22.80
2008,08,03,13,27,22.80
2008,08,03,13,28,22.90
2008,08,03,13,29,22.90
2008,08,03,13,30,23.00
2008,08,03,13,31,23.00
2008,08,03,13,32,23.10
2008,08,03,13,33,23.10
2008,08,03,13,34,23.10
2008,08,03,13,35,23.20
2008,08,03,13,36,23.20
2008,08,03,13,37,23.20
2008,08,03,13,38,23.20
2008,08,03,13,39,23.20
2008,08,03,13,40,23.20
2008,08,03,13,41,23.30
2008,08,03,13,42,23.30
2008,08,03,13,43,23.30
2008,08,03,13,44,23.40
2008,08,03,13,45,23.40
2008,08,03,13,46,23.40
2008,08,03,13,47,23.50
2008,08,03,13,48,23.50
2008,08,03,13,49,23.50
2008,08,03,13,50,23.50
2008,08,03,13,51,23.60
2008,08,03,13,52,23.60
2008,08,03,13,53,23.60
2008,08,03,13,54,23.60
2008,08,03,13,55,23.60
2008,08,03,13,56,23.60
2008,08,03,13,57,23.60
2008,08,03,13,58,23.70
2008,08,03,13,59,23.70
2008,08,03,14,00,23.70
2008,08,03,14,01,23.80
2008,08,03,14,02,23.80
2008,08,03,14,03,23.80
2008,08,03,14,04,23.80
2008,08,03,14,05,23.80
2008,08,03,14,06,23.90
2008,08,03,14,07,23.90
2008,08,03,14,08,24.00
2008,08,03,14,09,24.00
2008,08,03,14,10,24.10
2008,08,03,14,11,24.20
2008,08,03,14,12,24.20
2008,08,03,14,13,24.20
2008,08,03,14,14,24.20
2008,08,03,14,15,24.20
2008,08,03,14,16,24.20
2008,08,03,14,17,24.20
2008,08,03,14,18,24.20
2008,08,03,14,19,24.10
2008,08,03,14,20,24.10
2008,08,03,14,21,24.00
2008,08,03,14,22,23.90
2008,08,03,14,23,23.90
2008,08,03,14,24,23.90
2008,08,03,14,25,23.90
2008,08,03,14,26,23.80
2008,08,03,14,27,23.80
2008,08,03,14,28,23.70
2008,08,03,14,29,23.70
2008,08,03,14,30,23.70
2008,08,03,14,31,23.70
2008,08,03,14,32,23.80
2008,08,03,14,33,23.90
2008,08,03,14,34,24.00
2008,08,03,14,35,24.10
2008,08,03,14,36,24.10
2008,08,03,14,37,24.10
2008,08,03,14,38,24.10
2008,08,03,14,39,24.10
2008,08,03,14,40,24.10
2008,08,03,14,41,24.00
2008,08,03,14,42,24.00
2008,08,03,14,43,23.90
2008,08,03,14,44,23.90
2008,08,03,14,45,23.80
2008,08,03,14,46,23.80
2008,08,03,14,47,23.90
2008,08,03,14,48,23.90
2008,08,03,14,49,23.90
2008,08,03,14,50,23.90
2008,08,03,14,51,24.00
2008,08,03,14,52,23.90
2008,08,03,14,53,23.80
2008,08,03,14,54,23.80
2008,08,03,14,55,23.70
2008,08,03,14,56,23.70
2008,08,03,14,57,23.70
2008,08,03,14,58,23.80
2008,08,03,14,59,23.90
2008,08,03,15,00,24.00
2008,08,03,15,01,24.00
2008,08,03,15,02,24.10
2008,08,03,15,03,24.20
2008,08,03,15,04,24.30
2008,08,03,15,05,24.30
2008,08,03,15,06,24.30
2008,08,03,15,07,24.30
2008,08,03,15,08,24.30
2008,08,03,15,09,24.30
2008,08,03,15,10,24.40
2008,08,03,15,11,24.30
2008,08,03,15,12,24.30
2008,08,03,15,13,24.30
2008,08,03,15,14,24.30
2008,08,03,15,15,24.20
2008,08,03,15,16,24.10
2008,08,03,15,17,24.10
2008,08,03,15,18,24.10
2008,08,03,15,19,24.00
2008,08,03,15,20,23.90
2008,08,03,15,21,23.80
2008,08,03,15,22,23.70
2008,08,03,15,23,23.70
2008,08,03,15,24,23.60
2008,08,03,15,25,23.60
2008,08,03,15,26,23.50
2008,08,03,15,27,23.40
2008,08,03,15,28,23.40
2008,08,03,15,29,23.40
2008,08,03,15,30,23.40
2008,08,03,15,31,23.40
2008,08,03,15,32,23.50
2008,08,03,15,33,23.60
2008,08,03,15,34,23.80
2008,08,03,15,35,23.90
2008,08,03,15,36,24.10
2008,08,03,15,37,24.20
2008,08,03,15,38,24.40
2008,08,03,15,39,24.50
2008,08,03,15,40,24.60
2008,08,03,15,41,24.70
2008,08,03,15,42,24.80
2008,08,03,15,43,24.80
2008,08,03,15,44,24.80
2008,08,03,15,45,24.70
2008,08,03,15,46,24.70
2008,08,03,15,47,24.70
2008,08,03,15,48,24.70
2008,08,03,15,49,24.70
2008,08,03,15,50,24.70
2008,08,03,15,51,24.80
2008,08,03,15,52,24.80
2008,08,03,15,53,24.90
2008,08,03,15,54,24.90
2008,08,03,15,55,25.00
2008,08,03,15,56,25.00
2008,08,03,15,57,25.00
2008,08,03,15,58,24.90
2008,08,03,15,59,24.70
2008,08,03,16,00,24.40
2008,08,03,16,01,24.40
2008,08,03,16,02,24.30
2008,08,03,16,03,24.30
2008,08,03,16,04,24.40
2008,08,03,16,05,24.40
2008,08,03,16,06,24.40
2008,08,03,16,07,24.50
2008,08,03,16,08,24.60
2008,08,03,16,09,24.70
2008,08,03,16,10,24.80
2008,08,03,16,11,24.80
2008,08,03,16,12,24.80
2008,08,03,16,13,24.70
2008,08,03,16,14,24.70
2008,08,03,16,15,24.70
2008,08,03,16,16,24.60
2008,08,03,16,17,24.50
2008,08,03,16,18,24.50
2008,08,03,16,19,24.50
2008,08,03,16,20,24.50
2008,08,03,16,21,24.50
2008,08,03,16,22,24.60
2008,08,03,16,23,24.70
2008,08,03,16,24,24.70
2008,08,03,16,25,24.80
2008,08,03,16,26,24.80
2008,08,03,16,27,24.70
2008,08,03,16,28,24.70
2008,08,03,16,29,24.70
2008,08,03,16,30,24.70
2008,08,03,16,31,24.70
2008,08,03,16,32,24.70
2008,08,03,16,33,24.70
2008,08,03,16,34,24.80
2008,08,03,16,35,24.90
2008,08,03,16,36,24.90
2008,08,03,16,37,24.90
2008,08,03,16,38,25.00
2008,08,03,16,39,25.10
2008,08,03,16,40,25.00
2008,08,03,16,41,24.90
2008,08,03,16,42,24.90
2008,08,03,16,43,24.90
2008,08,03,16,44,24.90
2008,08,03,16,45,24.90
2008,08,03,16,46,24.90
2008,08,03,16,47,24.90
2008,08,03,16,48,24.90
2008,08,03,16,49,24.90
2008,08,03,16,50,24.90
2008,08,03,16,51,24.90
2008,08,03,16,52,24.90
2008,08,03,16,53,25.00
2008,08,03,16,54,25.10
2008,08,03,16,55,25.10
2008,08,03,16,56,25.00
2008,08,03,16,57,24.90
2008,08,03,16,58,25.00
2008,08,03,16,59,25.10
2008,08,03,17,00,25.10
2008,08,03,17,01,25.10
2008,08,03,17,02,25.10
2008,08,03,17,03,25.10
2008,08,03,17,04,25.10
2008,08,03,17,05,24.90
2008,08,03,17,06,24.80
2008,08,03,17,07,24.80
2008,08,03,17,08,24.80
2008,08,03,17,09,24.80
2008,08,03,17,10,24.90
2008,08,03,17,11,24.90
2008,08,03,17,12,25.00
2008,08,03,17,13,25.10
2008,08,03,17,14,25.10
2008,08,03,17,15,25.00
2008,08,03,17,16,24.90
2008,08,03,17,17,24.90
2008,08,03,17,18,24.90
2008,08,03,17,19,25.00
2008,08,03,17,20,25.10
2008,08,03,17,21,25.20
2008,08,03,17,22,25.30
2008,08,03,17,23,25.30